EW8689 Weather Reports


Display with metric or nautical units.
time (UTC)temp
F
wind
direction
speed
MPH
gust
MPH
rain 1hr
in
rain 24hr
in
rain mn
in
humidity
%
barometer
mb
20260505101532 61 0.0 0.0 0.00 0.55 0.39 91 1007.9
20260505100021 59 0.0 0.0 0.00 0.55 0.39 91 1008.0
20260505094512 59 0.0 0.0 0.00 0.55 0.39 93 1008.1
20260505093020 58 0.0 0.0 0.00 0.55 0.39 93 1008.1
20260505091504 57 0.0 0.0 0.00 0.55 0.39 94 1008.0
20260505090059 57 0.0 0.0 0.00 0.55 0.39 94 1007.9
20260505084555 56 0.0 0.0 0.00 0.55 0.39 94 1007.9
20260505083051 56 0.0 0.0 0.00 0.55 0.39 95 1007.8
20260505081557 56 0.0 0.0 0.00 0.55 0.39 95 1007.7
20260505080051 56 0.0 0.0 0.00 0.55 0.39 95 1007.9
20260505074538 56 0.0 0.0 0.00 0.55 0.39 95 1007.9
20260505073034 56 0.0 0.0 0.00 0.55 0.39 96 1007.9
20260505071529 56 0.0 0.0 0.00 0.55 0.39 95 1007.8
20260505070025 56 0.0 0.0 0.00 0.55 0.39 96 1007.9
20260505064520 55 0.0 0.0 0.00 0.61 0.39 95 1007.8
20260505063017 55 0.0 0.0 0.00 0.61 0.39 95 1007.6
20260505061512 55 0.0 0.0 0.01 0.61 0.39 96 1007.7
20260505060008 55 0.0 0.0 0.01 0.61 0.39 96 1007.6
20260505054503 54 0.0 0.0 0.01 0.72 0.39 96 1007.6
20260505053100 54 0.0 0.0 0.01 0.72 0.39 95 1007.6
20260505051612 54 0.0 0.0 0.00 0.72 0.38 95 1007.6
20260505041540 54 0.0 0.0 0.03 0.76 0.38 95 1008.0
20260505040033 54 0.0 0.0 0.03 0.75 0.36 95 1008.2
20260505034530 54 0.0 0.0 0.03 0.84 0.36 95 1008.3
20260505033028 54 0.0 0.0 0.06 0.83 0.35 95 1008.4
20260505031520 54 0.0 0.0 0.08 0.83 0.35 95 1008.5
20260505030015 54 0.0 0.0 0.08 0.81 0.33 95 1008.6
20260505024511 54 0.0 0.0 0.09 0.80 0.32 95 1008.8
20260505023006 54 0.0 0.0 0.07 0.78 0.30 95 1008.9
20260505021603 54 0.0 0.0 0.06 0.75 0.27 95 1008.8
20260505020105 54 0.0 0.0 0.05 0.73 0.25 95 1008.7
20260505014555 54 0.0 0.0 0.04 0.72 0.24 95 1008.9
20260505013049 54 0.0 0.0 0.03 0.71 0.23 94 1009.1
20260505011545 53 0.0 0.0 0.02 0.69 0.21 94 1009.2
20260505010048 53 0.0 0.0 0.02 0.69 0.20 94 1009.4
20260505004536 54 0.0 0.0 0.03 0.68 0.20 94 1009.4
20260505003031 54 0.0 0.0 0.05 0.68 0.20 94 1009.5
20260505001527 54 0.0 0.0 0.07 0.68 0.20 94 1009.6
20260505000023 54 0.0 0.0 0.09 0.66 0.18 94 1009.7
20260504234521 54 0.0 0.0 0.10 0.64 0.16 94 1009.9
20260504233014 54 0.0 0.0 0.11 0.62 0.14 94 1009.9
20260504231509 54 0.0 0.0 0.10 0.60 0.12 94 1010.1
20260504230006 54 0.0 0.0 0.08 0.56 0.08 93 1010.1
20260504224501 54 0.0 0.0 0.07 0.54 0.06 93 1010.1
20260504223057 54 0.0 0.0 0.05 0.51 0.03 93 1010.1
20260504221553 54 0.0 0.0 0.04 0.50 0.02 93 1010.1
20260504220049 54 0.0 0.0 0.02 0.48 0.00 93 1010.3
20260504214553 55 0.0 0.0 0.01 0.46 0.46 92 1010.4
20260504213040 55 0.0 0.0 0.01 0.46 0.46 92 1010.4
20260504211538 55 0.0 0.0 0.00 0.46 0.46 92 1010.4
20260504210035 55 0.0 0.0 0.00 0.46 0.46 92 1010.4
20260504204526 55 0.0 0.0 0.00 0.46 0.46 92 1010.5
20260504203029 55 0.0 0.0 0.00 0.46 0.46 92 1010.6
20260504201518 55 0.0 0.0 0.00 0.46 0.46 91 1010.6
20260504200014 55 0.0 0.0 0.00 0.46 0.46 91 1010.5
20260504194509 55 0.0 0.0 0.00 0.46 0.46 91 1010.5
20260504193013 55 0.0 0.0 0.00 0.46 0.46 91 1010.5
20260504191506 55 0.0 0.0 0.00 0.46 0.46 91 1010.6
20260504190128 55 0.0 0.0 0.00 0.46 0.46 90 1010.6
20260504184552 55 0.0 0.0 0.00 0.46 0.46 90 1010.6
20260504183048 55 0.0 0.0 0.00 0.46 0.46 90 1010.7
20260504181546 56 0.0 0.0 0.00 0.46 0.46 90 1010.8
20260504180040 56 0.0 0.0 0.00 0.46 0.46 90 1010.8
20260504174535 56 0.0 0.0 0.00 0.46 0.46 90 1010.7
20260504173032 56 0.0 0.0 0.00 0.46 0.46 90 1010.8
20260504171526 56 0.0 0.0 0.00 0.46 0.46 90 1010.9